• în România
  • Lista ţărilor
  • Pe 7 zile
  • Temperatura apei
  • Hartă satelitară
  • Meteo pe hartă
  • Widget-uri
  • user-avatar
    Intrare

    Meteo pe oră la Fier

    Astăzi, 22 Februarie, Miercuri

    Timp Temperatura Precipitaţii Vânt Presiune Umiditate
    00:00 +5°C° 0 mm 2 m/s 763 mmHg 69%
    01:00 +5°C° 0 mm 2 m/s 763 mmHg 69%
    02:00 +5°C° 0 mm 2 m/s 763 mmHg 71%
    03:00 +6°C° 0 mm 1 m/s 763 mmHg 73%
    04:00 +6°C° 0 mm 1 m/s 763 mmHg 76%
    05:00 +6°C° 0 mm 1 m/s 763 mmHg 76%
    06:00 +7°C° 0 mm 1 m/s 763 mmHg 76%
    07:00 +7°C° 0 mm 1 m/s 764 mmHg 76%
    08:00 +9°C° 0 mm 1 m/s 764 mmHg 69%
    09:00 +12°C° 0 mm 1 m/s 764 mmHg 62%
    10:00 +14°C° 0 mm 1 m/s 764 mmHg 55%
    11:00 +15°C° 0 mm 1 m/s 764 mmHg 54%
    12:00 +16°C° 0 mm 1 m/s 764 mmHg 53%
    13:00 +16°C° 0 mm 1 m/s 763 mmHg 52%
    14:00 +16°C° 0 mm 1 m/s 763 mmHg 56%
    15:00 +16°C° 0 mm 1 m/s 763 mmHg 60%
    16:00 +15°C° 0 mm 1 m/s 763 mmHg 65%
    17:00 +13°C° 0 mm 1 m/s 763 mmHg 72%
    18:00 +11°C° 0 mm 1 m/s 763 mmHg 80%
    19:00 +8°C° 0 mm 0 m/s 763 mmHg 87%
    20:00 +9°C° 0 mm 1 m/s 764 mmHg 88%
    21:00 +9°C° 0 mm 1 m/s 764 mmHg 88%
    22:00 +8°C° 0 mm 2 m/s 764 mmHg 88%
    23:00 +8°C° 0 mm 2 m/s 764 mmHg 88%

    Mâine, 23 Februarie, Joi

    Timp Temperatura Precipitaţii Vânt Presiune Umiditate
    00:00 +8°C° 0 mm 2 m/s 764 mmHg 88%
    01:00 +8°C° 0 mm 2 m/s 764 mmHg 89%
    02:00 +8°C° 0 mm 3 m/s 764 mmHg 89%
    03:00 +8°C° 0 mm 3 m/s 764 mmHg 89%
    04:00 +7°C° 0 mm 3 m/s 764 mmHg 89%
    05:00 +7°C° 0 mm 3 m/s 764 mmHg 88%
    06:00 +8°C° 0 mm 3 m/s 764 mmHg 87%
    07:00 +8°C° 0 mm 3 m/s 764 mmHg 85%
    08:00 +10°C° 0 mm 3 m/s 764 mmHg 75%
    09:00 +12°C° 0 mm 3 m/s 764 mmHg 66%
    10:00 +14°C° 0 mm 3 m/s 764 mmHg 56%
    11:00 +16°C° 0 mm 3 m/s 763 mmHg 54%
    12:00 +17°C° 0 mm 4 m/s 763 mmHg 52%
    13:00 +17°C° 0 mm 4 m/s 763 mmHg 50%
    14:00 +17°C° 0 mm 4 m/s 763 mmHg 54%
    15:00 +15°C° 0 mm 4 m/s 762 mmHg 58%
    16:00 +15°C° 0 mm 4 m/s 762 mmHg 61%
    17:00 +13°C° 0 mm 4 m/s 762 mmHg 69%
    18:00 +12°C° 0 mm 4 m/s 763 mmHg 78%
    19:00 +10°C° 0 mm 4 m/s 763 mmHg 86%
    20:00 +10°C° 0 mm 4 m/s 763 mmHg 87%
    21:00 +10°C° 0 mm 4 m/s 763 mmHg 88%
    22:00 +8°C° 0 mm 4 m/s 763 mmHg 89%
    23:00 +8°C° 0 mm 4 m/s 763 mmHg 90%

    Poimâine, 24 Februarie, Vineri

    Timp Temperatura Precipitaţii Vânt Presiune Umiditate
    00:00 +8°C° 0 mm 4 m/s 763 mmHg 90%
    01:00 +8°C° 0 mm 5 m/s 763 mmHg 90%
    02:00 +8°C° 0 mm 5 m/s 763 mmHg 90%
    03:00 +8°C° 0 mm 5 m/s 762 mmHg 90%
    04:00 +8°C° 0 mm 5 m/s 762 mmHg 90%
    05:00 +8°C° 0 mm 5 m/s 762 mmHg 89%
    06:00 +8°C° 0 mm 5 m/s 762 mmHg 89%
    07:00 +9°C° 0 mm 5 m/s 762 mmHg 88%
    08:00 +10°C° 0 mm 5 m/s 762 mmHg 82%
    09:00 +13°C° 0 mm 6 m/s 762 mmHg 75%
    10:00 +15°C° 0 mm 6 m/s 762 mmHg 68%
    11:00 +16°C° 0 mm 7 m/s 762 mmHg 65%
    12:00 +17°C° 0 mm 7 m/s 761 mmHg 63%
    13:00 +17°C° 0 mm 7 m/s 761 mmHg 60%
    14:00 +17°C° 0 mm 7 m/s 760 mmHg 63%
    15:00 +17°C° 0 mm 7 m/s 760 mmHg 65%
    16:00 +16°C° 0 mm 8 m/s 760 mmHg 68%
    17:00 +15°C° 0 mm 8 m/s 760 mmHg 73%
    18:00 +13°C° 0 mm 8 m/s 760 mmHg 78%
    19:00 +12°C° 0 mm 8 m/s 760 mmHg 84%
    20:00 +11°C° 0 mm 8 m/s 760 mmHg 83%
    21:00 +11°C° 0 mm 8 m/s 760 mmHg 82%
    22:00 +11°C° 0 mm 9 m/s 760 mmHg 81%
    23:00 +11°C° 0,1 mm 8 m/s 759 mmHg 78%

    25 Februarie, Sâmbătă

    Timp Temperatura Precipitaţii Vânt Presiune Umiditate
    00:00 +12°C° 0,1 mm 8 m/s 759 mmHg 76%
    01:00 +12°C° 0,1 mm 7 m/s 759 mmHg 73%
    02:00 +12°C° 0,2 mm 8 m/s 758 mmHg 74%
    03:00 +12°C° 0,2 mm 8 m/s 758 mmHg 74%
    04:00 +12°C° 0,2 mm 8 m/s 758 mmHg 74%
    05:00 +12°C° 0,8 mm 8 m/s 758 mmHg 76%
    06:00 +12°C° 0,8 mm 8 m/s 758 mmHg 78%
    07:00 +12°C° 0,8 mm 8 m/s 758 mmHg 80%
    08:00 +14°C° 0,6 mm 7 m/s 758 mmHg 80%
    09:00 +14°C° 0,6 mm 6 m/s 758 mmHg 80%
    10:00 +15°C° 0,6 mm 5 m/s 758 mmHg 79%
    11:00 +16°C° 0,6 mm 5 m/s 758 mmHg 76%
    12:00 +16°C° 0,6 mm 5 m/s 758 mmHg 74%
    13:00 +17°C° 0,6 mm 5 m/s 758 mmHg 71%
    14:00 +17°C° 1 mm 5 m/s 758 mmHg 72%
    15:00 +17°C° 1 mm 5 m/s 758 mmHg 74%
    16:00 +17°C° 1 mm 5 m/s 758 mmHg 76%
    17:00 +16°C° 1,2 mm 5 m/s 759 mmHg 79%
    18:00 +15°C° 1,2 mm 4 m/s 760 mmHg 82%
    19:00 +14°C° 1,2 mm 4 m/s 761 mmHg 85%
    20:00 +13°C° 0,8 mm 4 m/s 761 mmHg 85%
    21:00 +13°C° 0,8 mm 4 m/s 762 mmHg 85%
    22:00 +12°C° 0,8 mm 4 m/s 762 mmHg 85%
    23:00 +12°C° 1,1 mm 4 m/s 762 mmHg 85%

    26 Februarie, Duminică

    Timp Temperatura Precipitaţii Vânt Presiune Umiditate
    00:00 +12°C° 1,1 mm 4 m/s 762 mmHg 86%
    01:00 +11°C° 1,1 mm 4 m/s 763 mmHg 86%
    02:00 +11°C° 0,4 mm 3 m/s 763 mmHg 86%
    03:00 +10°C° 0,4 mm 3 m/s 763 mmHg 86%
    04:00 +10°C° 0,4 mm 3 m/s 763 mmHg 85%
    05:00 +10°C° 0 mm 3 m/s 763 mmHg 85%
    06:00 +10°C° 0 mm 3 m/s 763 mmHg 84%
    07:00 +10°C° 0 mm 3 m/s 763 mmHg 83%
    08:00 +13°C° 0,1 mm 2 m/s 764 mmHg 77%
    09:00 +15°C° 0,1 mm 2 m/s 764 mmHg 71%
    10:00 +17°C° 0,1 mm 2 m/s 764 mmHg 65%
    11:00 +18°C° 0,1 mm 2 m/s 764 mmHg 63%
    12:00 +19°C° 0,1 mm 2 m/s 763 mmHg 61%
    13:00 +19°C° 0,1 mm 2 m/s 763 mmHg 60%
    14:00 +19°C° 0,2 mm 2 m/s 763 mmHg 63%
    15:00 +18°C° 0,2 mm 2 m/s 763 mmHg 67%
    16:00 +18°C° 0,2 mm 2 m/s 763 mmHg 71%
    17:00 +16°C° 0,1 mm 2 m/s 763 mmHg 77%
    18:00 +14°C° 0,1 mm 2 m/s 763 mmHg 83%
    19:00 +13°C° 0,1 mm 2 m/s 763 mmHg 89%
    20:00 +13°C° 0 mm 2 m/s 764 mmHg 89%
    21:00 +12°C° 0 mm 1 m/s 764 mmHg 89%
    22:00 +12°C° 0 mm 1 m/s 764 mmHg 89%
    23:00 +12°C° 0 mm 1 m/s 764 mmHg 89%

    27 Februarie, Luni

    Timp Temperatura Precipitaţii Vânt Presiune Umiditate
    00:00 +11°C° 0 mm 1 m/s 764 mmHg 89%
    01:00 +11°C° 0 mm 1 m/s 764 mmHg 89%
    02:00 +11°C° 0 mm 1 m/s 764 mmHg 89%
    03:00 +11°C° 0 mm 1 m/s 764 mmHg 89%
    04:00 +10°C° 0 mm 1 m/s 763 mmHg 89%
    05:00 +11°C° 0 mm 1 m/s 764 mmHg 89%
    06:00 +11°C° 0 mm 1 m/s 764 mmHg 89%
    07:00 +11°C° 0 mm 1 m/s 764 mmHg 88%
    08:00 +13°C° 0 mm 1 m/s 764 mmHg 80%
    09:00 +16°C° 0 mm 1 m/s 764 mmHg 72%
    10:00 +19°C° 0 mm 1 m/s 765 mmHg 63%
    11:00 +18°C° 0 mm 2 m/s 764 mmHg 61%
    12:00 +19°C° 0 mm 2 m/s 764 mmHg 60%
    13:00 +20°C° 0 mm 3 m/s 764 mmHg 58%
    14:00 +19°C° 0 mm 3 m/s 763 mmHg 62%
    15:00 +19°C° 0 mm 3 m/s 763 mmHg 65%
    16:00 +18°C° 0 mm 4 m/s 763 mmHg 69%
    17:00 +16°C° 0 mm 3 m/s 763 mmHg 76%
    18:00 +13°C° 0 mm 3 m/s 764 mmHg 84%
    19:00 +13°C° 0 mm 2 m/s 764 mmHg 91%
    20:00 +12°C° 0 mm 2 m/s 764 mmHg 91%
    21:00 +12°C° 0 mm 2 m/s 764 mmHg 91%
    22:00 +12°C° 0 mm 2 m/s 764 mmHg 90%
    23:00 +12°C° 0 mm 2 m/s 764 mmHg 90%
    Arată mai mult